• In United Kingdom
  • List of Countries
  • For 7 days
  • Water Temperature
  • Satellite Maps
  • Weather Map
  • Weather Widgets
  • user-avatar
    Login

    Hourly Weather Starosiele

    Today, 24 October, Wednesday

    Time Temperature Precipitation Wind Pressure Humidity
    00:00 +6°C° 0.9 mm 8 mps 729 mmHg 85%
    01:00 +6°C° 0.9 mm 7 mps 729 mmHg 85%
    02:00 +6°C° 0.9 mm 7 mps 728 mmHg 86%
    03:00 +6°C° 0.3 mm 7 mps 727 mmHg 83%
    04:00 +5°C° 0.3 mm 8 mps 727 mmHg 81%
    05:00 +5°C° 0.3 mm 8 mps 727 mmHg 79%
    06:00 +5°C° 0.4 mm 8 mps 727 mmHg 79%
    07:00 +4°C° 0.4 mm 8 mps 727 mmHg 79%
    08:00 +4°C° 0.4 mm 7 mps 727 mmHg 79%
    09:00 +4°C° 0.3 mm 8 mps 728 mmHg 75%
    10:00 +5°C° 0.3 mm 9 mps 728 mmHg 71%
    11:00 +5°C° 0.3 mm 10 mps 729 mmHg 66%
    12:00 +5°C° 0.1 mm 10 mps 729 mmHg 64%
    13:00 +5°C° 0.1 mm 10 mps 730 mmHg 62%
    14:00 +5°C° 0.1 mm 10 mps 730 mmHg 59%
    15:00 +5°C° 0.3 mm 10 mps 731 mmHg 61%
    16:00 +3°C° 0.3 mm 10 mps 731 mmHg 62%
    17:00 +3°C° 0.3 mm 10 mps 731 mmHg 63%
    18:00 +3°C° 0.1 mm 11 mps 732 mmHg 65%
    19:00 +3°C° 0.1 mm 11 mps 732 mmHg 67%
    20:00 +3°C° 0.1 mm 11 mps 733 mmHg 69%
    21:00 +3°C° 0.1 mm 11 mps 733 mmHg 70%
    22:00 +3°C° 0.1 mm 10 mps 734 mmHg 71%
    23:00 +3°C° 0.1 mm 10 mps 735 mmHg 72%

    Tomorrow, 25 October, Thursday

    Time Temperature Precipitation Wind Pressure Humidity
    00:00 +3°C° 0 mm 9 mps 736 mmHg 72%
    01:00 +3°C° 0 mm 9 mps 736 mmHg 73%
    02:00 +3°C° 0 mm 9 mps 737 mmHg 73%
    03:00 +2°C° 0 mm 8 mps 737 mmHg 74%
    04:00 +2°C° 0 mm 8 mps 737 mmHg 74%
    05:00 +1°C° 0 mm 8 mps 738 mmHg 75%
    06:00 +2°C° 0 mm 7 mps 738 mmHg 76%
    07:00 +2°C° 0 mm 7 mps 738 mmHg 76%
    08:00 +1°C° 0 mm 6 mps 738 mmHg 76%
    09:00 +2°C° 0 mm 6 mps 738 mmHg 73%
    10:00 +3°C° 0 mm 6 mps 738 mmHg 69%
    11:00 +4°C° 0 mm 6 mps 738 mmHg 66%
    12:00 +4°C° 0.3 mm 6 mps 737 mmHg 69%
    13:00 +4°C° 0.3 mm 7 mps 736 mmHg 73%
    14:00 +3°C° 0.3 mm 7 mps 735 mmHg 76%
    15:00 +4°C° 1 mm 7 mps 734 mmHg 78%
    16:00 +5°C° 1 mm 8 mps 733 mmHg 81%
    17:00 +6°C° 1 mm 8 mps 732 mmHg 83%
    18:00 +6°C° 0.2 mm 8 mps 733 mmHg 81%
    19:00 +6°C° 0.2 mm 8 mps 733 mmHg 79%
    20:00 +6°C° 0.2 mm 8 mps 733 mmHg 77%
    21:00 +6°C° 0.1 mm 8 mps 734 mmHg 78%
    22:00 +5°C° 0.1 mm 8 mps 734 mmHg 79%
    23:00 +5°C° 0.1 mm 8 mps 735 mmHg 80%

    Day after tomorrow, 26 October, Friday

    Time Temperature Precipitation Wind Pressure Humidity
    00:00 +5°C° 0 mm 8 mps 736 mmHg 81%
    01:00 +5°C° 0 mm 8 mps 736 mmHg 82%
    02:00 +5°C° 0 mm 7 mps 737 mmHg 83%
    03:00 +5°C° 0 mm 7 mps 737 mmHg 83%
    04:00 +5°C° 0 mm 7 mps 737 mmHg 84%
    05:00 +5°C° 0 mm 6 mps 738 mmHg 84%
    06:00 +5°C° 0 mm 6 mps 738 mmHg 84%
    07:00 +4°C° 0 mm 6 mps 738 mmHg 84%
    08:00 +4°C° 0 mm 6 mps 739 mmHg 84%
    09:00 +5°C° 0 mm 6 mps 739 mmHg 82%
    10:00 +5°C° 0 mm 6 mps 739 mmHg 81%
    11:00 +5°C° 0 mm 6 mps 740 mmHg 79%
    12:00 +7°C° 0 mm 5 mps 740 mmHg 76%
    13:00 +7°C° 0 mm 5 mps 739 mmHg 73%
    14:00 +8°C° 0 mm 5 mps 739 mmHg 69%
    15:00 +7°C° 0 mm 5 mps 739 mmHg 70%
    16:00 +7°C° 0 mm 4 mps 739 mmHg 71%
    17:00 +8°C° 0 mm 3 mps 739 mmHg 72%
    18:00 +7°C° 0 mm 3 mps 739 mmHg 75%
    19:00 +6°C° 0 mm 4 mps 739 mmHg 78%
    20:00 +6°C° 0 mm 4 mps 738 mmHg 81%
    21:00 +6°C° 0 mm 4 mps 738 mmHg 82%
    22:00 +6°C° 0 mm 5 mps 738 mmHg 84%
    23:00 +7°C° 0 mm 5 mps 737 mmHg 85%

    27 October, Saturday

    Time Temperature Precipitation Wind Pressure Humidity
    00:00 +7°C° 0 mm 5 mps 737 mmHg 83%
    01:00 +8°C° 0 mm 6 mps 736 mmHg 81%
    02:00 +8°C° 0 mm 6 mps 736 mmHg 79%
    03:00 +8°C° 0 mm 6 mps 736 mmHg 79%
    04:00 +8°C° 0 mm 6 mps 736 mmHg 80%
    05:00 +8°C° 0 mm 6 mps 736 mmHg 80%
    06:00 +8°C° 0 mm 7 mps 736 mmHg 78%
    07:00 +8°C° 0 mm 7 mps 736 mmHg 77%
    08:00 +6°C° 0 mm 7 mps 737 mmHg 75%
    09:00 +6°C° 0 mm 8 mps 737 mmHg 70%
    10:00 +7°C° 0 mm 8 mps 738 mmHg 64%
    11:00 +7°C° 0 mm 8 mps 738 mmHg 59%
    12:00 +7°C° 0 mm 8 mps 739 mmHg 58%
    13:00 +8°C° 0 mm 7 mps 739 mmHg 57%
    14:00 +8°C° 0 mm 7 mps 740 mmHg 57%
    15:00 +8°C° 0 mm 6 mps 740 mmHg 58%
    16:00 +7°C° 0 mm 5 mps 740 mmHg 59%
    17:00 +7°C° 0 mm 4 mps 741 mmHg 60%
    18:00 +7°C° 0 mm 3 mps 741 mmHg 62%
    19:00 +7°C° 0 mm 3 mps 742 mmHg 65%
    20:00 +5°C° 0 mm 3 mps 742 mmHg 67%
    21:00 +6°C° 0 mm 2 mps 743 mmHg 68%
    22:00 +6°C° 0 mm 2 mps 743 mmHg 69%
    23:00 +7°C° 0 mm 1 mps 743 mmHg 70%

    28 October, Sunday

    Time Temperature Precipitation Wind Pressure Humidity
    00:00 +7°C° 0 mm 1 mps 744 mmHg 70%
    01:00 +7°C° 0 mm 1 mps 744 mmHg 71%
    02:00 +5°C° 0 mm 0 mps 744 mmHg 71%
    03:00 +6°C° 0.1 mm 1 mps 744 mmHg 72%
    04:00 +6°C° 0.1 mm 1 mps 745 mmHg 74%
    05:00 +6°C° 0.1 mm 1 mps 745 mmHg 75%
    06:00 +6°C° 0.2 mm 1 mps 745 mmHg 76%
    07:00 +6°C° 0.2 mm 1 mps 745 mmHg 78%
    08:00 +6°C° 0.2 mm 1 mps 745 mmHg 79%
    09:00 +5°C° 0.4 mm 2 mps 746 mmHg 78%
    10:00 +6°C° 0.4 mm 2 mps 746 mmHg 78%
    11:00 +5°C° 0.4 mm 3 mps 746 mmHg 77%
    12:00 +5°C° 0.4 mm 3 mps 746 mmHg 77%
    13:00 +5°C° 0.4 mm 4 mps 745 mmHg 77%
    14:00 +5°C° 0.4 mm 5 mps 745 mmHg 77%
    15:00 +5°C° 0.5 mm 5 mps 745 mmHg 80%
    16:00 +5°C° 0.5 mm 5 mps 745 mmHg 82%
    17:00 +3°C° 0.5 mm 5 mps 745 mmHg 85%
    18:00 +3°C° 1 mm 6 mps 745 mmHg 86%
    19:00 +3°C° 1 mm 6 mps 744 mmHg 88%
    20:00 +3°C° 1 mm 6 mps 744 mmHg 89%
    21:00 +3°C° 2.2 mm 6 mps 744 mmHg 90%
    22:00 +3°C° 2.2 mm 6 mps 744 mmHg 91%
    23:00 +3°C° 2.2 mm 6 mps 743 mmHg 92%

    29 October, Monday

    Time Temperature Precipitation Wind Pressure Humidity
    00:00 +5°C° 1.3 mm 5 mps 743 mmHg 93%
    01:00 +5°C° 1.3 mm 5 mps 742 mmHg 93%
    02:00 +5°C° 1.3 mm 5 mps 742 mmHg 94%
    03:00 +5°C° 0.7 mm 4 mps 742 mmHg 94%
    04:00 +5°C° 0.7 mm 4 mps 741 mmHg 95%
    05:00 +5°C° 0.7 mm 4 mps 741 mmHg 95%
    06:00 +5°C° 0.4 mm 3 mps 741 mmHg 95%
    07:00 +7°C° 0.4 mm 3 mps 741 mmHg 95%
    08:00 +7°C° 0.4 mm 3 mps 740 mmHg 95%
    09:00 +8°C° 0.3 mm 3 mps 741 mmHg 93%
    10:00 +9°C° 0.3 mm 3 mps 741 mmHg 90%
    11:00 +9°C° 0.3 mm 3 mps 741 mmHg 88%
    12:00 +10°C° 1 mm 3 mps 740 mmHg 90%
    13:00 +10°C° 1 mm 3 mps 740 mmHg 91%
    14:00 +10°C° 1 mm 3 mps 740 mmHg 93%
    15:00 +10°C° 1.8 mm 3 mps 740 mmHg 93%
    16:00 +9°C° 1.8 mm 3 mps 740 mmHg 94%
    17:00 +9°C° 1.8 mm 3 mps 740 mmHg 95%
    18:00 +9°C° 0.7 mm 3 mps 740 mmHg 94%
    19:00 +8°C° 0.7 mm 3 mps 740 mmHg 94%
    20:00 +7°C° 0.7 mm 4 mps 740 mmHg 94%
    21:00 +6°C° 0.1 mm 4 mps 741 mmHg 93%
    22:00 +6°C° 0.1 mm 4 mps 741 mmHg 93%
    23:00 +5°C° 0.1 mm 4 mps 742 mmHg 92%

    30 October, Tuesday

    Time Temperature Precipitation Wind Pressure Humidity
    00:00 +5°C° 0 mm 4 mps 742 mmHg 92%
    01:00 +4°C° 0 mm 4 mps 743 mmHg 91%
    02:00 +4°C° 0 mm 4 mps 743 mmHg 90%
    03:00 +3°C° 0 mm 4 mps 743 mmHg 90%
    04:00 +2°C° 0 mm 5 mps 743 mmHg 90%
    05:00 +2°C° 0 mm 5 mps 743 mmHg 89%
    06:00 +2°C° 0.6 mm 5 mps 744 mmHg 89%
    07:00 +1°C° 0.6 mm 6 mps 744 mmHg 89%
    08:00 +1°C° 0.6 mm 6 mps 744 mmHg 90%
    09:00 +1°C° 0.8 mm 6 mps 744 mmHg 89%
    10:00 +2°C° 0.8 mm 6 mps 744 mmHg 89%
    11:00 +2°C° 0.8 mm 6 mps 745 mmHg 88%
    12:00 +2°C° 0.3 mm 6 mps 745 mmHg 89%
    13:00 +2°C° 0.3 mm 6 mps 745 mmHg 89%
    14:00 +1°C° 0.3 mm 6 mps 745 mmHg 89%
    15:00 0°C° 0.1 mm 7 mps 745 mmHg 89%
    16:00 0°C° 0.1 mm 7 mps 745 mmHg 88%
    17:00 0°C° 0.1 mm 7 mps 745 mmHg 88%
    18:00 0°C° 0.1 mm 8 mps 745 mmHg 88%
    19:00 0°C° 0.1 mm 8 mps 745 mmHg 88%
    20:00 0°C° 0.1 mm 8 mps 745 mmHg 87%
    21:00 0°C° 0.3 mm 8 mps 745 mmHg 87%
    22:00 0°C° 0.3 mm 8 mps 744 mmHg 88%
    23:00 0°C° 0.3 mm 8 mps 744 mmHg 88%
    Show more